This demonstration page uses our WeatherBlox Daily Observations layout. Learn more.

36.17497, -115.13722

Hourly Observations for June 9, 2020

Temp ( °F °C ) Dew Point ( °F °C ) Humidity (%) Winds ( mph kmh ) Pressure ( in mb ) Visibility ( mi km ) Precip ( " mm )
12:53 am 00:53 Clear 68 20 17 -8.3 14 14 NW 3 6 30.12 1020 10 16.0934 0 0
1:53 am 01:53 Clear 66 18.9 16 -8.9 14 14 NW 6 9 30.12 1020 10 16.0934 0 0
2:53 am 02:53 Clear 69 20.6 13 -10.6 11 11 NNE 9 15 30.14 1021 10 16.0934 0 0
3:53 am 03:53 Clear 65 18.3 16 -8.9 15 15 WSW 6 9 30.14 1021 10 16.0934 0 0
4:53 am 04:53 Clear 63 17.2 19 -7.2 18 18 Calm 30.17 1022 10 16.0934 0 0
5:53 am 05:53 Sunny 63 17.2 21 -6.1 20 20 WSW 7 11 30.19 1022 10 16.0934 0 0
6:53 am 06:53 Sunny 67 19.4 21 -6.1 17 17 WSW 3 6 30.2 1023 10 16.0934 0 0
7:53 am 07:53 Sunny 71 21.7 20 -6.7 14 14 S 7 11 30.22 1023 10 16.0934 0 0
8:53 am 08:53 Sunny 73 22.8 19 -7.2 13 13 VRB 3 6 30.21 1023 10 16.0934 0 0
9:53 am 09:53 Sunny 76 24.4 21 -6.1 13 13 ENE 6 9 30.2 1023 10 16.0934 0 0
10:53 am 10:53 Sunny 78 25.6 21 -6.1 12 12 E 10 17 30.2 1023 10 16.0934 0 0
11:53 am 11:53 Sunny 80 26.7 21 -6.1 11 11 Calm 30.18 1022 10 16.0934 0 0
12:53 pm 12:53 Sunny 82 27.8 21 -6.1 10 10 W 5 7 30.16 1021 10 16.0934 0 0
1:53 pm 13:53 Sunny 83 28.3 21 -6.1 10 10 VRB 5 7 30.14 1021 10 16.0934 0 0
2:53 pm 14:53 Sunny 85 29.4 21 -6.1 9 9 VRB 3 6 30.11 1020 10 16.0934 0 0
3:53 pm 15:53 Sunny 86 30 20 -6.7 9 9 VRB 6 9 30.08 1019 10 16.0934 0 0
4:53 pm 16:53 Sunny 87 30.6 20 -6.7 8 8 E 7 11 30.06 1018 10 16.0934 0 0
5:53 pm 17:53 Sunny 87 30.6 20 -6.7 8 8 E 5 7 30.04 1017 10 16.0934 0 0
6:53 pm 18:53 Sunny 87 30.6 19 -7.2 8 8 ENE 7 11 30.04 1017 10 16.0934 0 0
7:53 pm 19:53 Sunny 85 29.4 19 -7.2 9 9 E 8 13 30.04 1017 10 16.0934 0 0
8:53 pm 20:53 Clear 84 28.9 22 -5.6 10 10 SSW 5 7 30.04 1017 10 16.0934 0 0
9:53 pm 21:53 Clear 82 27.8 23 -5 11 11 WSW 6 9 30.05 1018 10 16.0934 0 0
10:53 pm 22:53 Clear 79 26.1 25 -3.9 14 14 W 7 11 30.04 1017 10 16.0934 0 0
11:53 pm 23:53 Clear 75 23.9 25 -3.9 15 15 NW 7 11 30.04 1017 10 16.0934 0 0

Powered by AerisWeather